Location: Croydon
(51.3762°N, 0.0982°W)
Time: 04:13:30
(UTC+00:00)

Altair - Pass Details

Date: 22 November 2019
Orbit: 1502 x 1682 km, 47.2° (Epoch: 05 December)

Event Time Altitude Azimuth Distance (km) Brightness Sun altitude
Rises 06:52:05 0° 280° (W) 4,639 - -5.9°
Exits shadow 06:53:31 - 278° (W) 4,177 9.2 -5.7°
Reaches altitude 10° 06:55:09 10° 276° (W) 3,661 8.9 -5.5°
Maximum altitude 07:04:00 55° 202° (SSW) 1,786 8.0 -4.2°
Drops below altitude 10° 07:13:05 10° 129° (SE) 3,746 11.4 -3.0°
Sets 07:16:16 0° 125° (SE) 4,752 13.1 -2.5°
